Wind_Speed
28 26 24 24 24 24 24 25 26 26 25 26 27 27 27 27 27 25 25 25 24 23 23 24 24 24 24 24 24 25 25 25 25 26 27 27 27 27 28 28 29 28 27 27
28 26 25 25 25 25 24 24 25 27 28 28 30 29 29 28 28 26 26 26 26 25 25 26 26 26 26 27 27 27 28 28 28 28 28 29 29 30 30 30 30 30 29 29
28 26 27 27 25 25 25 25 25 28 30 30 32 30 30 30 31 30 29 28 28 28 28 28 28 28 29 29 29 29 30 30 30 30 30 30 31 31 31 31 31 31 31 30
28 28 29 28 26 26 26 27 28 31 32 32 33 32 33 33 32 31 31 30 30 30 30 30 30 31 31 31 32 32 32 32 32 32 32 32 32 32 32 32 31 31 31 31
30 30 29 27 27 27 27 30 32 33 34 33 32 34 35 34 33 32 32 32 32 33 33 33 33 33 33 34 34 34 34 34 34 34 34 34 34 34 32 32 32 32 31 31
31 30 30 29 29 29 29 33 34 34 33 33 34 35 36 32 32 33 34 34 34 35 35 35 35 35 35 36 36 36 36 36 36 36 36 36 36 35 34 33 33 32 32 31
32 32 30 31 31 30 32 34 36 35 36 36 36 36 37 36 35 35 35 36 36 37 37 38 37 37 37 37 38 37 37 37 38 37 36 36 36 35 34 34 33 32 32 32
31 32 34 35 33 33 33 35 36 36 36 37 36 36 37 37 37 36 36 36 37 37 37 38 38 38 37 37 38 37 38 38 38 37 37 37 36 36 35 35 34 34 33 33
33 33 32 33 34 35 36 37 37 37 36 36 36 36 37 38 37 37 36 37 37 38 38 38 38 37 36 35 36 37 38 38 38 39 38 37 36 36 36 36 35 34 34 34
32 34 34 36 37 36 36 37 38 38 36 35 36 36 36 37 37 36 36 36 36 37 38 39 39 38 37 36 36 37 37 37 37 37 37 37 36 36 36 36 36 35 34 33
33 33 33 35 37 37 37 37 37 37 37 37 37 37 37 37 37 37 37 36 36 37 38 39 38 38 37 37 36 37 37 37 37 37 37 36 36 36 35 35 35 35 35 34
34 34 35 36 35 35 36 36 37 37 37 37 38 38 38 38 38 37 37 38 38 37 37 37 38 37 38 38 38 38 38 38 38 38 37 36 36 36 36 36 36 36 36 36
33 33 34 34 34 34 35 35 36 35 36 37 38 38 37 37 38 38 38 38 38 38 37 37 37 37 37 37 38 38 39 39 38 37 36 36 36 37 37 37 37 37 36 36
32 32 33 33 33 34 34 34 35 35 35 36 36 37 37 36 37 37 37 38 38 38 38 38 37 37 37 37 37 37 38 37 36 36 36 36 36 36 37 36 36 36 36 36
31 32 32 32 32 32 33 34 34 34 34 34 34 35 35 36 36 36 36 37 37 38 38 39 39 39 38 36 35 35 36 36 36 36 36 35 36 36 35 35 35 35 35 34
29 29 30 31 31 31 32 32 32 32 33 33 33 33 34 35 35 36 35 36 36 37 37 38 38 37 35 34 34 35 35 34 35 35 35 35 35 35 35 34 35 34 33 32
26 26 27 28 29 30 30 31 31 32 32 32 32 33 33 33 33 33 34 35 35 36 36 36 35 34 33 33 33 34 34 34 34 34 34 34 34 33 33 32 31 31 31 30
24 25 26 26 27 27 28 29 29 30 31 31 31 31 31 32 32 32 33 32 32 33 33 32 31 31 31 31 31 32 32 32 32 32 32 32 32 32 31 31 30 31 31 31
23 25 25 26 26 27 27 27 28 29 29 29 29 29 29 30 30 30 30 30 30 31 31 30 30 31 31 31 31 31 31 31 31 31 31 30 30 31 31 31 31 31 31 30
23 23 24 25 26 26 26 27 28 28 28 27 27 27 28 28 28 28 29 29 28 28 28 29 29 29 29 30 30 30 30 30 30 30 29 29 29 30 30 30 30 30 30 29
22 22 23 23 24 25 26 26 26 27 26 26 26 27 28 28 27 27 27 27 27 27 27 27 27 27 28 28 28 28 29 29 29 29 28 28 29 29 29 29 28 28 27 27
22 23 23 23 23 24 25 25 26 26 26 26 26 26 26 27 26 26 26 26 26 26 25 25 26 26 27 27 27 28 28 29 29 29 29 29 29 28 28 27 27 27 26 26
22 22 22 22 22 23 23 23 24 24 24 24 24 24 24 24 24 24 24 24 24 24 24 25 25 25 25 25 25 26 27 27 27 27 28 28 28 27 26 25 25 25 25 25
21 21 21 21 21 21 21 21 22 22 22 22 22 23 23 22 22 23 23 23 23 24 24 25 24 23 23 24 24 25 25 25 25 25 25 25 24 23 23 23 23 23 24 24
19 20 20 20 20 20 20 21 21 21 21 22 22 22 22 22 22 22 22 22 22 23 23 23 23 23 23 23 23 23 23 23 23 23 23 22 22 22 23 23 23 23 24 24
19 19 18 19 19 20 20 20 21 21 21 21 22 22 22 22 22 22 22 22 22 21 22 22 22 22 22 21 21 22 22 22 22 22 22 21 21 22 22 22 22 23 23 23
18 18 18 19 19 19 20 20 21 21 22 22 22 23 23 22 22 22 21 21 22 22 22 22 22 22 21 21 21 21 21 21 21 21 21 21 21 22 21 21 21 22 22 23
Wind_Direction
237 236 240 245 245 246 247 247 250 255 258 262 264 268 272 275 274 276 278 280 282 283 283 284 285 286 288 289 291 293 295 296 297 297 298 297 298 299 301 300 301 300 299 297
242 241 244 248 249 249 247 249 252 256 258 261 264 267 270 274 275 273 276 278 279 280 280 281 282 283 284 286 288 291 293 293 294 295 296 296 297 298 301 300 300 299 297 297
245 246 248 247 244 249 252 251 252 253 254 256 261 265 270 273 272 273 274 275 277 278 279 279 280 281 283 285 287 288 289 291 290 292 294 294 296 297 299 299 298 297 297 296
247 249 249 248 244 245 250 250 250 253 257 261 263 265 268 270 271 272 274 275 276 277 279 279 279 279 282 283 285 286 287 289 289 290 291 292 293 294 295 297 297 296 296 295
246 250 254 251 250 246 247 251 252 254 258 261 265 266 268 270 272 274 274 275 276 276 277 279 280 280 282 283 284 284 284 286 287 288 289 290 291 291 292 294 295 295 294 294
246 249 252 253 252 252 252 253 254 257 260 263 266 267 270 271 273 274 273 274 275 276 277 278 279 280 281 282 283 284 284 285 286 286 286 288 288 289 290 291 292 292 293 293
248 250 251 251 252 254 253 255 259 262 266 266 266 269 272 273 273 274 274 274 275 275 276 277 278 280 281 282 282 283 282 283 285 285 285 286 287 288 289 289 290 291 292 293
250 249 250 251 250 251 254 258 261 263 266 267 269 271 272 273 274 274 274 274 275 275 276 276 277 278 279 280 281 282 283 283 283 284 286 285 287 287 288 289 291 291 292 292
249 251 254 256 255 256 258 260 263 264 268 270 270 272 272 274 275 274 275 275 275 275 275 275 276 277 278 278 279 281 283 284 285 286 287 287 287 287 288 289 290 291 290 289
254 252 253 255 257 259 259 261 263 265 269 270 271 271 272 273 275 275 276 276 275 275 276 276 276 277 278 279 280 282 283 284 286 287 287 286 287 287 288 288 288 288 289 289
256 256 257 258 259 261 262 264 267 268 269 269 270 271 273 274 275 275 276 275 276 276 277 277 276 277 278 279 279 280 281 284 285 287 288 287 286 287 287 288 287 287 288 289
256 258 260 261 262 263 263 266 268 269 269 269 270 273 274 274 275 275 275 275 277 278 278 279 279 278 278 279 279 279 281 283 284 285 286 286 284 284 285 286 286 284 285 286
258 260 262 262 264 266 266 268 269 270 271 271 273 275 276 276 277 276 276 276 277 279 279 280 280 279 279 279 279 279 281 282 283 283 284 285 284 283 283 284 285 285 284 285
258 260 262 263 265 267 268 269 270 271 272 272 274 275 277 277 278 278 278 277 278 279 279 280 281 281 280 280 281 281 280 281 282 284 283 285 284 283 282 283 284 285 286 286
262 263 263 265 266 267 268 269 271 272 272 273 275 276 277 278 278 278 279 280 279 279 280 281 281 281 279 279 281 281 282 283 283 284 284 285 285 285 284 284 285 287 287 286
265 264 264 265 267 268 268 269 271 273 274 275 277 278 279 279 280 280 279 278 279 280 280 281 281 280 278 278 279 281 282 282 283 283 284 284 285 285 285 285 285 286 287 287
268 269 268 267 267 267 268 270 271 274 276 277 278 280 281 282 282 281 281 281 280 280 280 281 280 279 279 279 279 280 281 282 282 283 284 285 285 284 286 286 286 287 288 289
270 269 268 269 268 268 269 270 272 274 276 278 279 280 281 282 283 283 283 283 282 281 281 279 278 278 281 280 279 279 281 282 283 283 284 285 284 284 285 286 287 286 287 287
270 270 270 270 270 271 272 274 275 277 278 280 281 283 284 286 286 284 284 286 285 282 280 278 278 279 279 280 280 280 281 282 283 284 283 283 283 284 285 285 285 286 286 286
268 270 272 272 271 272 274 276 278 280 280 282 283 284 285 287 286 285 284 286 285 285 284 282 281 281 281 280 280 280 282 283 284 284 283 283 283 284 284 285 285 284 284 285
269 272 274 274 273 273 274 276 278 280 281 283 284 285 286 288 286 285 285 285 284 283 283 283 284 282 282 282 282 282 282 284 285 285 285 285 285 285 285 284 283 282 282 283
271 275 277 276 276 276 276 277 278 278 280 282 284 285 287 287 287 286 284 284 284 284 284 284 282 282 283 283 282 282 282 283 285 286 286 285 285 285 285 283 283 283 282 283
274 276 277 278 278 278 279 280 281 282 283 285 286 287 288 288 287 286 284 284 284 286 286 287 286 287 288 286 284 283 284 285 286 287 288 286 285 284 284 284 284 283 283 283
275 276 277 277 279 281 282 283 284 285 286 287 288 289 289 289 288 287 286 286 287 288 290 291 290 288 288 288 287 286 286 287 288 288 288 286 284 284 285 285 285 284 284 285
276 277 278 278 279 280 282 284 284 285 286 287 289 290 289 289 289 290 288 288 288 289 292 294 294 293 291 290 291 290 289 289 287 285 287 287 286 287 287 288 288 287 286 286
275 276 277 278 280 282 283 285 286 288 290 290 290 290 291 290 290 289 289 291 292 293 294 294 295 295 294 293 293 293 292 291 290 291 290 288 288 288 287 287 287 287 287 288
276 276 276 278 280 283 285 286 287 288 289 290 290 290 290 291 292 291 290 290 291 292 292 293 294 295 295 294 295 296 295 292 291 291 292 291 290 290 290 290 289 289 289 290
Height
5870 5873 5875 5877 5879 5881 5883 5883 5885 5884 5884 5882 5880 5879 5878 5878 5877 5876 5877 5877 5877 5877 5876 5876 5875 5874 5873 5872 5870 5869 5867 5866 5864 5862 5860 5858 5855 5854 5851 5849 5847 5845 5843 5842
5862 5866 5868 5869 5872 5874 5875 5877 5877 5877 5877 5874 5872 5872 5872 5872 5871 5871 5871 5871 5871 5871 5870 5870 5869 5868 5867 5866 5864 5863 5861 5859 5857 5855 5853 5851 5849 5847 5844 5842 5840 5838 5837 5835
5855 5858 5860 5862 5866 5868 5869 5870 5870 5869 5868 5866 5866 5864 5865 5865 5864 5864 5864 5864 5864 5863 5863 5863 5862 5861 5860 5859 5857 5856 5854 5853 5850 5848 5846 5844 5842 5840 5837 5835 5833 5831 5829 5827
5848 5851 5851 5857 5858 5859 5859 5859 5859 5859 5858 5858 5858 5857 5857 5857 5856 5856 5857 5857 5856 5855 5855 5855 5854 5853 5852 5851 5850 5848 5847 5845 5843 5841 5838 5836 5834 5832 5829 5827 5825 5823 5821 5819
5841 5842 5844 5849 5849 5849 5850 5849 5849 5850 5850 5849 5850 5849 5849 5849 5849 5848 5848 5848 5848 5847 5847 5846 5845 5844 5844 5843 5841 5840 5838 5837 5834 5832 5830 5828 5826 5823 5821 5819 5817 5815 5813 5811
5832 5834 5836 5839 5840 5841 5843 5840 5840 5841 5841 5841 5842 5841 5840 5840 5840 5840 5838 5839 5839 5838 5837 5837 5836 5835 5834 5833 5832 5830 5829 5827 5825 5823 5821 5819 5816 5814 5812 5810 5808 5806 5805 5803
5824 5825 5828 5828 5829 5832 5834 5832 5832 5833 5833 5833 5833 5831 5831 5831 5831 5830 5829 5828 5829 5828 5828 5827 5827 5826 5825 5823 5822 5820 5819 5817 5816 5814 5812 5810 5807 5805 5803 5801 5800 5798 5796 5794
5816 5818 5820 5818 5821 5823 5823 5823 5824 5824 5824 5823 5823 5822 5821 5821 5821 5820 5818 5818 5818 5818 5818 5817 5816 5815 5814 5813 5811 5809 5808 5807 5805 5804 5802 5800 5798 5796 5794 5792 5790 5789 5787 5785
5807 5809 5810 5810 5811 5812 5813 5814 5814 5814 5814 5813 5813 5812 5812 5811 5811 5810 5809 5808 5808 5807 5807 5807 5806 5805 5804 5802 5801 5799 5798 5797 5795 5793 5791 5789 5788 5786 5784 5783 5781 5780 5778 5776
5798 5799 5800 5802 5802 5802 5803 5804 5805 5804 5803 5804 5803 5802 5802 5802 5801 5801 5800 5798 5797 5797 5796 5795 5795 5794 5793 5792 5791 5790 5788 5786 5784 5782 5780 5779 5777 5776 5774 5773 5771 5770 5768 5767
5789 5791 5792 5792 5793 5793 5794 5795 5795 5795 5794 5794 5794 5793 5792 5792 5791 5790 5789 5788 5787 5786 5785 5784 5783 5783 5782 5781 5781 5779 5778 5776 5774 5772 5770 5768 5767 5765 5764 5763 5762 5760 5759 5757
5781 5782 5782 5783 5784 5785 5784 5785 5785 5785 5785 5784 5783 5783 5782 5782 5781 5780 5779 5778 5776 5775 5774 5773 5772 5771 5771 5770 5769 5768 5767 5766 5764 5762 5760 5758 5756 5756 5755 5754 5752 5750 5748 5747
5772 5773 5773 5774 5775 5774 5774 5775 5775 5775 5775 5774 5774 5773 5772 5771 5770 5769 5768 5767 5766 5764 5763 5762 5761 5760 5760 5759 5758 5757 5756 5755 5753 5752 5750 5748 5746 5746 5745 5743 5741 5739 5737 5736
5763 5764 5764 5765 5766 5766 5765 5765 5765 5765 5765 5764 5764 5763 5762 5761 5759 5758 5757 5755 5754 5753 5752 5751 5750 5749 5749 5748 5747 5746 5745 5744 5743 5741 5739 5738 5737 5735 5734 5733 5732 5729 5728 5726
5755 5755 5756 5756 5756 5756 5756 5756 5756 5756 5755 5755 5754 5753 5752 5750 5749 5748 5746 5745 5743 5742 5741 5739 5738 5738 5737 5736 5736 5735 5735 5734 5732 5731 5729 5728 5727 5725 5724 5723 5721 5720 5718 5716
5747 5746 5747 5747 5747 5748 5747 5747 5747 5747 5746 5746 5745 5744 5742 5741 5739 5737 5736 5734 5732 5731 5729 5728 5727 5727 5726 5726 5726 5725 5725 5724 5722 5721 5720 5719 5717 5716 5714 5713 5712 5710 5708 5706
5739 5739 5739 5739 5739 5739 5739 5738 5738 5738 5737 5736 5736 5735 5733 5731 5729 5727 5725 5723 5722 5720 5719 5718 5717 5716 5716 5716 5716 5715 5715 5714 5713 5712 5710 5709 5708 5706 5705 5703 5702 5700 5699 5697
5733 5733 5732 5732 5731 5731 5731 5730 5730 5729 5728 5728 5727 5726 5724 5722 5720 5718 5716 5714 5712 5711 5710 5709 5708 5708 5707 5707 5706 5705 5705 5704 5703 5702 5701 5700 5698 5697 5696 5694 5693 5691 5690 5688
5726 5725 5725 5724 5724 5723 5723 5723 5722 5721 5720 5720 5719 5717 5716 5714 5711 5709 5708 5706 5704 5703 5702 5701 5700 5700 5699 5698 5697 5697 5696 5695 5694 5693 5692 5690 5689 5688 5686 5685 5684 5682 5681 5680
5719 5718 5718 5717 5717 5716 5716 5715 5714 5713 5712 5712 5711 5709 5708 5706 5704 5702 5700 5698 5697 5695 5694 5693 5693 5692 5690 5689 5689 5688 5687 5686 5685 5684 5682 5681 5680 5679 5677 5676 5674 5673 5672 5670
5712 5712 5711 5710 5709 5709 5708 5708 5707 5706 5705 5704 5703 5702 5700 5698 5696 5694 5692 5691 5690 5688 5687 5686 5685 5684 5682 5681 5680 5679 5678 5677 5676 5675 5673 5672 5671 5669 5668 5667 5665 5664 5663 5662
5706 5705 5705 5704 5703 5702 5702 5700 5699 5698 5697 5697 5695 5694 5692 5690 5688 5686 5685 5684 5682 5681 5679 5678 5677 5676 5674 5673 5672 5671 5670 5668 5667 5665 5664 5663 5662 5661 5659 5658 5657 5656 5655 5654
5699 5699 5698 5698 5697 5696 5695 5693 5692 5691 5691 5690 5688 5687 5685 5683 5681 5680 5678 5677 5676 5674 5673 5671 5669 5668 5666 5665 5664 5662 5661 5660 5658 5657 5655 5654 5653 5652 5651 5650 5649 5648 5647 5646
5694 5693 5692 5691 5691 5690 5689 5687 5686 5685 5684 5683 5681 5680 5678 5677 5675 5673 5672 5670 5669 5668 5666 5665 5663 5661 5660 5658 5657 5655 5654 5652 5651 5650 5648 5646 5645 5645 5644 5643 5642 5641 5640 5639
5687 5687 5686 5685 5684 5683 5682 5681 5680 5679 5678 5677 5675 5674 5672 5671 5669 5668 5666 5665 5663 5662 5660 5658 5656 5655 5653 5652 5649 5647 5646 5645 5644 5643 5641 5640 5638 5638 5637 5636 5634 5633 5632 5631
5682 5681 5680 5679 5678 5678 5677 5676 5675 5673 5672 5670 5669 5668 5666 5665 5663 5662 5660 5659 5657 5655 5654 5653 5651 5649 5647 5645 5644 5642 5640 5638 5637 5636 5635 5634 5632 5630 5629 5628 5627 5626 5625 5623
5676 5675 5674 5674 5673 5672 5671 5670 5669 5668 5666 5664 5663 5661 5660 5658 5657 5655 5654 5653 5651 5649 5648 5647 5645 5643 5642 5640 5638 5636 5634 5633 5631 5630 5629 5627 5626 5625 5623 5621 5620 5619 5618 5616